User: anonymous
Location: Dover
(39.1580°N, 75.5250°W)
Time: 02:32:42
(UTC-04:00)
Language:

Cosmos 1437 Rocket - Orbit

View from above orbital plane
View from above orbital plane
View from above satellite
View from above satellite

Ground track
Ground track

The orbit data is extracted from the following two-line orbital elements,

1 13771U 83003B   14212.78125440  .00002144  00000-0  14283-3 0   874
2 13771 081.1583 133.1782 0029680 242.4112 117.4096 15.06362151715262
Epoch (UTC): 31 July 2014 18:45:00
Eccentricity: 0.0029680
inclination: 81.1583°
perigee height: 527 km
apogee height: 568 km
right ascension of ascending node: 133.1782°
argument of perigee: 242.4112°
revolutions per day: 15.06362151
mean anomaly at epoch: 117.4096°
orbit number at epoch: 71526

The dashed part of the orbit path shows where the satellite is in the earth's shadow,  

DLR